Location: Gellin
(53.4498°N, 14.3207°E)
Time: 23:23:24
(UTC+00:00)

Cosmos 1992 Rocket - Pass Details

Date: 03 March 2021
Orbit: 759 x 765 km, 74.0° (Epoch: 12 April)

Event Time Altitude Azimuth Distance (km) Brightness Sun altitude
Rises 17:49:12 0° 189° (S) 3,219 7.3 -10.4°
Reaches altitude 10° 17:51:36 10° 185° (S) 2,297 6.5 -10.8°
Maximum altitude 17:56:40 54° 109° (ESE) 928 4.1 -11.5°
Drops below altitude 10° 18:01:45 10° 33° (NNE) 2,310 6.2 -12.3°
Sets 18:04:10 0° 29° (NNE) 3,240 7.0 -12.6°
